 87026481,2006-07-21T23:33:24.921,-3120.87,15428407, 154.67,  12.05, 2575001, 2575007, 2574800, 2575111, 2575075,     155,    1.02,   0.061,    0.14,   22.84,    0.10
 87026482,2006-07-21T23:33:28.921,-3116.87,15406552, 154.68,  12.06, 2574944, 2574917, 2574653, 2574962, 2575018,     176,    0.50,   0.065,   -0.24,   18.72,    0.19
 87026483,2006-07-21T23:33:32.378,-3113.41,15387455, 154.70,  12.07, 2574906, 2574930, 2574751, 2575060, 2574980,      94,   -0.02,   0.065,   -0.36,   17.40,    0.09
 87026484,2006-07-21T23:33:35.835,-3109.96,15368568, 154.70,  12.09, 2574951, 2574965, 2574690, 2574999, 2575025,     184,    0.32,   0.062,   -0.92,   16.37,    0.26
 87026485,2006-07-21T23:33:39.292,-3106.50,15349651, 154.71,  12.10, 2575012, 2574958, 2574678, 2574985, 2575086,     216,    0.56,   0.066,   -0.45,   18.37,    0.18
 87026486,2006-07-21T23:33:42.921,-3102.87,15329565, 154.72,  12.10, 2574992, 2574996, 2574763, 2575069, 2575065,     191,    0.95,   0.082,    0.78,   20.06,    0.05
 87026487,2006-07-21T23:33:46.378,-3099.41,15310528, 154.73,  12.11, 2575017, 2575023, 2574817, 2575122, 2575089,     177,    1.15,   0.098,    1.85,   22.15,    0.15
 87026488,2006-07-21T23:33:49.835,-3095.96,15291521, 154.74,  12.13, 2575012, 2575036, 2574852, 2575156, 2575084,     140,    0.92,   0.095,    0.41,   19.74,    0.05
 87026489,2006-07-21T23:33:53.292,-3092.50,15272574, 154.76,  12.13, 2575000, 2575026, 2574740, 2575044, 2575072,     230,    0.80,   0.110,    2.05,   22.77,    0.05
 87026490,2006-07-21T23:33:56.921,-3088.87,15252728, 154.79,  12.14, 2574961, 2574984, 2574755, 2575058, 2575032,     157,    0.40,   0.138,    1.32,   20.14,    0.02
 87026491,2006-07-21T23:34:00.378,-3085.41,15233841, 154.81,  12.16, 2574988, 2575001, 2574726, 2575029, 2575058,     185,    0.40,   0.154,   -0.16,   19.22,    0.14
 87026492,2006-07-21T23:34:03.835,-3081.96,15214714, 154.82,  12.16, 2575001, 2575029, 2574823, 2575125, 2575070,     159,    0.96,   0.167,    0.90,   20.74,    0.08
 87026493,2006-07-21T23:34:07.292,-3078.50,15195797, 154.84,  12.16, 2574991, 2575021, 2574842, 2575144, 2575060,     146,    1.32,   0.193,    3.26,   23.36,    0.22
 87026494,2006-07-21T23:34:10.921,-3074.87,15175831, 154.86,  12.19, 2574975, 2574993, 2574700, 2575002, 2575043,     201,    0.42,   0.212,    0.24,   18.73,    0.12
 87026495,2006-07-21T23:34:14.378,-3071.41,15156884, 154.87,  12.23, 2574990, 2575018, 2574774, 2575075, 2575057,     200,    1.00,   0.209,    1.86,   21.56,    0.09
 87026496,2006-07-21T23:34:17.835,-3067.96,15137937, 154.86,  12.29, 2574967, 2574974, 2574776, 2575076, 2575036,     158,    1.00,   0.178,    1.57,   22.22,    0.10
 87026497,2006-07-21T23:34:21.292,-3064.50,15118990, 154.81,  12.38, 2574938, 2574968, 2574737, 2575036, 2575007,     186,    0.82,   0.155,    0.40,   21.60,    0.06
 87026498,2006-07-21T23:34:24.921,-3060.87,15099025, 154.76,  12.51, 2574993, 2575027, 2574778, 2575079, 2575060,     196,    0.87,   0.225,    2.66,   23.25,    0.12
 87026499,2006-07-21T23:34:28.378,-3057.41,15080258, 154.69,  12.65, 2574950, 2575011, 2574679, 2574992, 2575010,     205,    0.53,   0.363,    1.48,   20.08,    0.00
 87026500,2006-07-21T23:34:31.835,-3053.96,15061101, 154.61,  12.79, 2574990, 2575100, 2574702, 2575044, 2575043,     239,    0.46,   0.531,    1.17,   20.73,    0.02
 87026501,2006-07-21T23:34:35.292,-3050.50,15042484, 154.51,  12.91, 2574994, 2575153, 2574678, 2575060, 2575041,     221,    0.26,   0.679,    0.15,   19.30,    0.21
 87026502,2006-07-21T23:34:38.921,-3046.87,15022278, 154.39,  12.95, 2574954, 2575043, 2574645, 2575056, 2574999,     260,    0.89,   0.766,    1.07,   19.99,    0.01
 87026503,2006-07-21T23:34:42.378,-3043.41,15003271, 154.25,  12.98, 2574974, 2575129, 2574699, 2575152, 2575016,     278,    1.02,   0.873,    1.82,   22.63,    0.06
 87026504,2006-07-21T23:34:45.835,-3039.96,14984384, 154.13,  12.99, 2574941, 2575093, 2574610, 2575098, 2574983,     277,    0.66,   0.951,    0.15,   19.54,    0.07
 87026505,2006-07-21T23:34:49.292,-3036.50,14965348, 154.09,  12.99, 2574977, 2575309, 2574774, 2575276, 2575018,     207,    1.28,   0.977,    3.43,   23.81,    0.14
 87026506,2006-07-21T23:34:52.920,-3032.87,14945411, 154.05,  13.00, 2574990, 2575155, 2574717, 2575236, 2575032,     198,    0.48,   1.012,   -0.33,   17.20,    0.28
 87026507,2006-07-21T23:34:56.377,-3029.41,14926464, 154.04,  13.00, 2574967, 2575328, 2574725, 2575241, 2575009,     235,    0.69,   1.008,    1.35,   22.48,    0.03
 87026508,2006-07-21T23:34:59.834,-3025.96,14907487, 154.06,  13.00, 2574983, 2575323, 2574760, 2575261, 2575024,     196,    0.98,   0.981,    1.33,   21.35,    0.04
 87026509,2006-07-21T23:35:03.291,-3022.50,14888540, 154.07,  13.02, 2574961, 2575312, 2574729, 2575230, 2575002,     239,    1.01,   0.980,    0.28,   22.32,    0.01
 87026510,2006-07-21T23:35:06.920,-3018.87,14868664, 154.10,  13.05, 2574972, 2575286, 2574713, 2575209, 2575013,     212,    0.73,   0.972,    0.18,   21.17,    0.03
 87026511,2006-07-21T23:35:10.377,-3015.41,14849687, 154.13,  13.07, 2574974, 2575140, 2574686, 2575168, 2575015,     296,    1.31,   0.946,    2.34,   22.16,    0.09
 87026512,2006-07-21T23:35:13.834,-3011.96,14830920, 154.17,  13.08, 2574954, 2575231, 2574574, 2575041, 2574996,     230,    0.28,   0.915,   -1.05,   19.24,    0.41
 87026513,2006-07-21T23:35:17.291,-3008.50,14811824, 154.18,  13.08, 2574965, 2575246, 2574716, 2575174, 2575007,     245,    1.11,   0.896,    0.64,   20.18,    0.05
 87026514,2006-07-21T23:35:20.920,-3004.87,14792097, 154.19,  13.07, 2574920, 2575014, 2574587, 2575034, 2574962,     215,    0.45,   0.872,   -1.79,   15.46,    0.61
 87026515,2006-07-21T23:35:24.377,-3001.41,14773180, 154.19,  13.09, 2574895, 2575135, 2574594, 2575042, 2574937,     194,    0.68,   0.874,    0.23,   20.35,    0.15
 87026516,2006-07-21T23:35:27.834,-2997.96,14753963, 154.18,  13.12, 2574983, 2575117, 2574678, 2575136, 2575024,     224,    0.42,   0.897,   -0.09,   18.07,    0.22
 87026517,2006-07-21T23:35:31.291,-2994.50,14735016, 154.16,  13.13, 2574937, 2575091, 2574627, 2575089, 2574978,     231,    0.23,   0.909,   -0.68,   17.28,    0.20
 87026518,2006-07-21T23:35:34.920,-2990.87,14715111, 154.15,  13.13, 2574989, 2575272, 2574752, 2575215, 2575030,     230,    1.19,   0.911,    1.38,   21.48,    0.07
 87026519,2006-07-21T23:35:38.377,-2987.41,14696314, 154.14,  13.17, 2574922, 2575007, 2574508, 2574983, 2574963,     311,    0.64,   0.938,    0.25,   16.71,    0.08
 87026520,2006-07-21T23:35:41.834,-2983.96,14677187, 154.12,  13.18, 2574975, 2575148, 2574661, 2575144, 2575016,     275,    0.86,   0.954,    0.79,   20.78,    0.04
 87026521,2006-07-21T23:35:45.291,-2980.50,14658240, 154.09,  13.18, 2574991, 2575321, 2574769, 2575258, 2575032,     245,    1.27,   0.969,    1.13,   22.32,    0.11
 87026522,2006-07-21T23:35:48.920,-2976.87,14638364, 154.08,  13.21, 2574966, 2575293, 2574733, 2575231, 2575006,     193,    0.71,   0.988,    0.64,   21.95,    0.04
 87026523,2006-07-21T23:35:52.377,-2973.41,14619387, 154.10,  13.24, 2574976, 2575108, 2574624, 2575119, 2575017,     264,    0.51,   0.982,    1.72,   20.60,    0.10
 87026524,2006-07-21T23:35:55.834,-2969.96,14600500, 154.15,  13.26, 2574972, 2575099, 2574641, 2575123, 2575013,     279,    0.91,   0.957,    0.80,   19.65,    0.04
 87026525,2006-07-21T23:35:59.291,-2966.50,14581613, 154.19,  13.27, 2574938, 2575217, 2574650, 2575114, 2574979,     207,    0.66,   0.922,   -0.80,   18.70,    0.20
 87026526,2006-07-21T23:36:02.920,-2962.87,14561587, 154.24,  13.25, 2574984, 2575133, 2574671, 2575106, 2575026,     270,    0.76,   0.856,    0.14,   20.78,    0.07
 87026527,2006-07-21T23:36:06.377,-2959.41,14542670, 154.28,  13.26, 2574960, 2575197, 2574724, 2575140, 2575002,     243,    1.03,   0.813,    2.00,   22.36,    0.09
 87026528,2006-07-21T23:36:09.834,-2955.96,14523813, 154.33,  13.29, 2574981, 2575104, 2574653, 2575062, 2575023,     199,    0.11,   0.797,   -0.32,   17.94,    0.41
 87026529,2006-07-21T23:36:13.291,-2952.50,14504746, 154.38,  13.28, 2574995, 2575045, 2574689, 2575078, 2575039,     212,    0.53,   0.744,    0.92,   19.03,    0.08
 87026530,2006-07-21T23:36:16.920,-2948.87,14485080, 154.43,  13.29, 2574929, 2575103, 2574699, 2575076, 2574973,     146,    0.53,   0.711,    0.51,   19.09,    0.10
 87026531,2006-07-21T23:36:20.377,-2945.41,14465923, 154.47,  13.31, 2574998, 2575024, 2574645, 2575015, 2575042,     221,    0.32,   0.691,   -0.97,   16.45,    0.23
 87026532,2006-07-21T23:36:23.834,-2941.96,14447186, 154.52,  13.32, 2574939, 2575007, 2574699, 2575059, 2574985,     149,    0.14,   0.662,    0.50,   19.12,    0.17
 87026533,2006-07-21T23:36:27.291,-2938.50,14428059, 154.57,  13.32, 2574994, 2575112, 2574776, 2575126, 2575040,     166,    0.88,   0.630,    3.38,   24.10,    0.13
 87026534,2006-07-21T23:36:30.920,-2934.87,14408153, 154.61,  13.33, 2574978, 2575111, 2574726, 2575069, 2575025,     211,    0.66,   0.606,    1.66,   22.09,    0.04
 87026535,2006-07-21T23:36:34.377,-2931.41,14389356, 154.64,  13.33, 2574982, 2575099, 2574717, 2575053, 2575030,     183,    0.59,   0.585,    0.62,   19.78,    0.07
 87026536,2006-07-21T23:36:37.834,-2927.96,14370349, 154.68,  13.38, 2575001, 2575036, 2574698, 2575044, 2575048,     200,    0.65,   0.619,    1.16,   20.32,    0.10
 87026537,2006-07-21T23:36:41.291,-2924.50,14351582, 154.71,  13.38, 2574984, 2575039, 2574649, 2574990, 2575031,     255,    0.94,   0.604,    0.90,   19.55,    0.10
 87026538,2006-07-21T23:36:44.748,-2921.04,14332515, 154.73,  13.38, 2574975, 2575097, 2574711, 2575047, 2575022,     180,    0.27,   0.587,   -0.38,   17.82,    0.20
 87026539,2006-07-21T23:36:48.205,-2917.59,14313418, 154.74,  13.39, 2574959, 2574994, 2574644, 2574977, 2575007,     256,    0.97,   0.578,    2.49,   21.53,    0.02
 87026540,2006-07-21T23:36:51.920,-2913.87,14293093, 154.75,  13.41, 2574985, 2575097, 2574731, 2575063, 2575033,     209,    0.85,   0.576,    1.12,   21.32,    0.04
 87026541,2006-07-21T23:36:55.377,-2910.41,14274356, 154.76,  13.43, 2574978, 2575010, 2574671, 2575006, 2575025,     252,    1.12,   0.592,    1.51,   20.44,    0.03
 87026542,2006-07-21T23:36:58.834,-2906.96,14255229, 154.76,  13.48, 2574965, 2575105, 2574752, 2575096, 2575010,     221,    1.43,   0.626,    3.37,   23.59,    0.16
 87026543,2006-07-21T23:37:02.291,-2903.50,14236342, 154.74,  13.47, 2574967, 2575048, 2574748, 2575085, 2575013,     155,    1.18,   0.599,    2.18,   22.25,    0.10
 87026544,2006-07-21T23:37:05.748,-2900.04,14217365, 154.73,  13.47, 2574984, 2575072, 2574711, 2575044, 2575031,     200,    0.97,   0.588,    2.35,   22.16,    0.03
 87026545,2006-07-21T23:37:09.205,-2896.59,14198538, 154.71,  13.48, 2575003, 2575023, 2574690, 2575021, 2575050,     238,    0.85,   0.581,    0.93,   17.98,    0.01
 87026546,2006-07-21T23:37:12.920,-2892.87,14178092, 154.68,  13.51, 2575005, 2575019, 2574649, 2574984, 2575051,     254,    0.45,   0.601,    0.51,   20.65,    0.15
 87026547,2006-07-21T23:37:16.377,-2889.41,14159355, 154.66,  13.54, 2574995, 2575123, 2574690, 2575030, 2575041,     193,    0.25,   0.620,    1.66,   20.45,    0.18
 87026548,2006-07-21T23:37:19.834,-2885.96,14140379, 154.63,  13.55, 2574994, 2574921, 2574654, 2574993, 2575039,     209,    0.68,   0.619,    0.22,   20.45,    0.21
 87026549,2006-07-21T23:37:23.291,-2882.50,14121432, 154.59,  13.54, 2574985, 2575094, 2574647, 2574983, 2575031,     246,    1.02,   0.609,    0.34,   20.28,    0.14
 87026550,2006-07-21T23:37:26.748,-2879.04,14102515, 154.55,  13.53, 2574978, 2575100, 2574723, 2575058, 2575023,     200,    1.02,   0.607,    1.47,   20.92,    0.03
 87026551,2006-07-21T23:37:30.205,-2875.59,14083358, 154.50,  13.55, 2575001, 2575148, 2574762, 2575105, 2575045,     203,    0.79,   0.636,    0.93,   21.83,    0.03
 87026552,2006-07-21T23:37:33.919,-2871.87,14063302, 154.44,  13.58, 2575012, 2575004, 2574692, 2575047, 2575055,     158,    0.21,   0.678,   -0.52,   19.62,    0.15
 87026553,2006-07-21T23:37:37.376,-2868.42,14044145, 154.39,  13.62, 2574969, 2575162, 2574755, 2575132, 2575011,     153,    0.20,   0.743,   -0.90,   18.59,    0.18
 87026554,2006-07-21T23:37:40.833,-2864.96,14025258, 154.34,  13.63, 2574995, 2575047, 2574669, 2575057, 2575036,     232,    0.72,   0.772,    0.77,   18.45,    0.11
 87026555,2006-07-21T23:37:44.290,-2861.50,14006401, 154.28,  13.62, 2574991, 2575202, 2574735, 2575132, 2575031,     216,    1.39,   0.799,    2.12,   21.26,    0.03
 87026556,2006-07-21T23:37:47.747,-2858.04,13987304, 154.21,  13.62, 2574988, 2575062, 2574648, 2575063, 2575028,     235,    0.49,   0.844,    0.78,   17.90,    0.08
 87026557,2006-07-21T23:37:51.204,-2854.59,13968507, 154.17,  13.64, 2574986, 2575190, 2574674, 2575107, 2575025,     235,    0.93,   0.888,    1.95,   21.63,    0.05
 87026558,2006-07-21T23:37:54.919,-2850.87,13948151, 154.18,  13.68, 2575005, 2575236, 2574710, 2575151, 2575045,     203,    0.88,   0.905,    0.19,   19.66,    0.13
 87026559,2006-07-21T23:37:58.376,-2847.42,13929205, 154.18,  13.72, 2575012, 2575161, 2574706, 2575155, 2575052,     269,    0.88,   0.924,    0.62,   20.03,    0.06
 87026560,2006-07-21T23:38:01.833,-2843.96,13910378, 154.17,  13.72, 2574945, 2575054, 2574657, 2575102, 2574984,     199,    0.56,   0.915,   -0.10,   18.05,    0.15
 87026561,2006-07-21T23:38:05.290,-2840.50,13891431, 154.17,  13.72, 2575006, 2575096, 2574652, 2575091, 2575045,     286,    0.82,   0.905,    0.90,   20.19,    0.03
 87026562,2006-07-21T23:38:08.747,-2837.04,13872334, 154.20,  13.73, 2575008, 2575274, 2574737, 2575162, 2575047,     232,    0.97,   0.875,    1.31,   22.28,    0.05
 87026563,2006-07-21T23:38:12.204,-2833.59,13853717, 154.26,  13.76, 2575003, 2575106, 2574656, 2575067, 2575042,     229,    0.29,   0.844,    0.19,   18.92,    0.22
 87026564,2006-07-21T23:38:15.919,-2829.87,13833121, 154.33,  13.80, 2574989, 2575108, 2574646, 2575042, 2575029,     288,    0.71,   0.809,    1.24,   22.01,    0.07
 87026565,2006-07-21T23:38:19.376,-2826.42,13814174, 154.40,  13.81, 2575001, 2575101, 2574664, 2575039, 2575041,     294,    0.76,   0.754,    0.96,   20.75,    0.04
 87026566,2006-07-21T23:38:22.833,-2822.96,13795557, 154.46,  13.82, 2574923, 2574912, 2574666, 2575024, 2574965,     157,    0.54,   0.707,   -0.34,   18.71,    0.14
 87026567,2006-07-21T23:38:26.290,-2819.50,13776431, 154.51,  13.84, 2574982, 2574992, 2574653, 2575004, 2575024,     223,    0.44,   0.686,   -0.34,   18.50,    0.18
 87026568,2006-07-21T23:38:29.747,-2816.04,13757574, 154.55,  13.86, 2574988, 2575126, 2574771, 2575114, 2575031,     167,    1.13,   0.666,    1.60,   20.64,    0.02
 87026569,2006-07-21T23:38:33.204,-2812.59,13738507, 154.60,  13.84, 2574981, 2575125, 2574757, 2575085, 2575025,     197,    0.82,   0.616,    0.89,   22.08,    0.01
 87026570,2006-07-21T23:38:36.919,-2808.87,13718391, 154.64,  13.82, 2575003, 2575071, 2574702, 2575014, 2575049,     195,    0.91,   0.558,    1.56,   22.70,    0.08
 87026571,2006-07-21T23:38:40.376,-2805.42,13699384, 154.67,  13.81, 2574953, 2574963, 2574666, 2574968, 2575000,     248,    1.15,   0.518,    1.55,   22.17,    0.04
 87026572,2006-07-21T23:38:43.833,-2801.96,13680407, 154.68,  13.81, 2575015, 2575102, 2574835, 2575132, 2575063,     138,    0.96,   0.498,    3.05,   22.59,    0.13
 87026573,2006-07-21T23:38:47.290,-2798.50,13661850, 154.69,  13.83, 2575011, 2574815, 2574695, 2574991, 2575058,     180,   -0.18,   0.499,   -0.45,   18.32,    0.32
 87026574,2006-07-21T23:38:50.747,-2795.04,13642543, 154.70,  13.85, 2575008, 2575079, 2574764, 2575061, 2575055,     211,    1.09,   0.503,    3.50,   24.80,    0.09
 87026575,2006-07-21T23:38:54.204,-2791.59,13623776, 154.70,  13.90, 2574998, 2575005, 2574713, 2575017, 2575044,     185,    1.00,   0.536,    1.49,   22.31,    0.02
 87026576,2006-07-21T23:38:57.919,-2787.87,13603480, 154.69,  13.95, 2575003, 2574893, 2574621, 2574935, 2575047,     252,    0.59,   0.579,    1.56,   19.89,    0.10
 87026577,2006-07-21T23:39:01.376,-2784.42,13584443, 154.67,  13.97, 2575010, 2575027, 2574721, 2575038, 2575054,     203,    0.55,   0.592,    1.23,   21.28,    0.05
 87026578,2006-07-21T23:39:04.833,-2780.96,13565826, 154.65,  13.98, 2574995, 2575020, 2574702, 2575018, 2575039,     185,    0.18,   0.590,    1.51,   19.95,    0.07
 87026579,2006-07-21T23:39:08.290,-2777.50,13546669, 154.63,  13.99, 2575003, 2575110, 2574693, 2575012, 2575047,     211,    0.36,   0.599,    1.78,   21.37,    0.16
 87026580,2006-07-21T23:39:11.747,-2774.04,13527722, 154.59,  14.02, 2575005, 2574992, 2574685, 2575011, 2575048,     180,    0.26,   0.627,    1.16,   19.62,    0.13
 87026581,2006-07-21T23:39:15.204,-2770.59,13508955, 154.54,  14.05, 2574963, 2575020, 2574648, 2574984, 2575004,     264,    0.59,   0.664,    0.81,   20.70,    0.03
 87026582,2006-07-21T23:39:18.919,-2766.87,13488569, 154.48,  14.07, 2574996, 2575042, 2574752, 2575100, 2575037,     198,    1.04,   0.698,    2.79,   22.01,    0.08
 87026583,2006-07-21T23:39:22.376,-2763.42,13469562, 154.43,  14.05, 2574978, 2575142, 2574738, 2575087, 2575019,     224,    0.97,   0.704,    2.23,   24.15,    0.08
 87026584,2006-07-21T23:39:25.833,-2759.96,13450676, 154.38,  14.05, 2574991, 2575162, 2574726, 2575085, 2575031,     195,    0.45,   0.733,    0.24,   21.24,    0.10
 87026585,2006-07-21T23:39:29.290,-2756.50,13431729, 154.31,  14.05, 2575005, 2575208, 2574749, 2575124, 2575044,     172,    0.15,   0.778,    0.76,   19.86,    0.14
 87026586,2006-07-21T23:39:32.747,-2753.04,13412902, 154.27,  14.07, 2574982, 2575063, 2574734, 2575125, 2575021,     190,    0.93,   0.821,    1.60,   23.72,    0.03
 87026587,2006-07-21T23:39:36.203,-2749.59,13394015, 154.24,  14.10, 2574983, 2575032, 2574688, 2575092, 2575021,     209,    0.68,   0.853,    0.84,   18.57,    0.05
 87026588,2006-07-21T23:39:39.919,-2745.87,13373690, 154.23,  14.14, 2574997, 2575115, 2574705, 2575121, 2575035,     227,    0.54,   0.883,    0.51,   19.29,    0.05
 87026589,2006-07-21T23:39:43.376,-2742.42,13354683, 154.21,  14.16, 2574992, 2575052, 2574598, 2575024, 2575030,     305,    0.50,   0.906,    1.61,   19.75,    0.16
 87026590,2006-07-21T23:39:46.833,-2738.96,13336215, 154.22,  14.16, 2574995, 2575060, 2574665, 2575083, 2575033,     221,    0.54,   0.888,    1.05,   20.07,    0.10
 87026591,2006-07-21T23:39:50.290,-2735.50,13316969, 154.27,  14.17, 2575014, 2575082, 2574684, 2575081, 2575052,     239,    0.68,   0.842,    0.82,   20.09,    0.09
 87026592,2006-07-21T23:39:53.747,-2732.04,13298232, 154.30,  14.19, 2574989, 2574972, 2574699, 2575083, 2575027,     185,    0.72,   0.810,    0.90,   20.71,    0.09
 87026593,2006-07-21T23:39:57.204,-2728.59,13279315, 154.32,  14.22, 2574972, 2575175, 2574702, 2575082, 2575011,     178,    0.93,   0.803,    1.44,   21.70,    0.11
 87026594,2006-07-21T23:40:00.918,-2724.87,13258808, 154.34,  14.26, 2574993, 2575119, 2574710, 2575093, 2575031,     199,    0.19,   0.812,    0.14,   20.52,    0.23
 87026595,2006-07-21T23:40:04.375,-2721.42,13240071, 154.36,  14.28, 2574985, 2575088, 2574742, 2575121, 2575024,     184,    0.70,   0.802,    3.00,   22.80,    0.02
 87026596,2006-07-21T23:40:07.832,-2717.96,13221484, 154.37,  14.27, 2574979, 2574953, 2574675, 2575041, 2575018,     189,    0.56,   0.771,    1.21,   20.47,    0.08
 87026597,2006-07-21T23:40:11.289,-2714.50,13202147, 154.38,  14.27, 2575004, 2575112, 2574751, 2575109, 2575042,     226,    0.85,   0.751,    2.94,   23.57,    0.05
 87026598,2006-07-21T23:40:14.746,-2711.05,13183260, 154.37,  14.29, 2574984, 2575090, 2574723, 2575085, 2575023,     220,    0.71,   0.762,    1.76,   22.19,    0.03
 87026599,2006-07-21T23:40:18.203,-2707.59,13164344, 154.35,  14.32, 2575018, 2575104, 2574736, 2575108, 2575056,     235,    1.02,   0.789,    2.06,   23.18,    0.02
 87026600,2006-07-21T23:40:21.918,-2703.87,13144168, 154.33,  14.33, 2574987, 2575067, 2574733, 2575109, 2575025,     212,    1.22,   0.800,    1.63,   20.03,    0.03
 87026601,2006-07-21T23:40:25.375,-2700.42,13125311, 154.31,  14.32, 2574985, 2575079, 2574686, 2575061, 2575023,     250,    0.96,   0.799,    1.94,   21.13,    0.01
 87026602,2006-07-21T23:40:28.832,-2696.96,13106274, 154.29,  14.31, 2574992, 2575210, 2574756, 2575130, 2575030,     170,    0.54,   0.798,    0.74,   20.69,    0.12
 87026603,2006-07-21T23:40:32.289,-2693.50,13087627, 154.30,  14.32, 2575000, 2575104, 2574717, 2575085, 2575038,     163,    0.58,   0.783,    1.43,   21.88,    0.17
 87026604,2006-07-21T23:40:35.746,-2690.05,13068590, 154.33,  14.33, 2575001, 2575196, 2574751, 2575108, 2575039,     178,    0.51,   0.755,    0.39,   20.20,    0.12
 87026605,2006-07-21T23:40:39.203,-2686.59,13049793, 154.36,  14.35, 2574973, 2574995, 2574677, 2575026, 2575011,     208,    0.96,   0.735,    0.77,   20.68,    0.05
 87026606,2006-07-21T23:40:42.918,-2682.87,13029467, 154.37,  14.40, 2574984, 2574982, 2574673, 2575026, 2575022,     213,    0.90,   0.748,    2.15,   21.26,    0.01
 87026607,2006-07-21T23:40:46.375,-2679.42,13010700, 154.39,  14.44, 2574988, 2575043, 2574671, 2575024, 2575026,     212,    0.42,   0.749,    0.20,   18.26,    0.08
 87026608,2006-07-21T23:40:49.832,-2675.96,12991634, 154.38,  14.46, 2574970, 2575062, 2574734, 2575092, 2575008,     221,    1.17,   0.762,    2.18,   24.68,    0.11
 87026609,2006-07-21T23:40:53.289,-2672.50,12972956, 154.37,  14.46, 2575014, 2575030, 2574709, 2575066, 2575052,     215,    0.84,   0.761,    1.53,   20.33,    0.03
 87026610,2006-07-21T23:40:56.746,-2669.05,12953980, 154.35,  14.47, 2574998, 2574993, 2574735, 2575093, 2575036,     178,    0.91,   0.767,    2.23,   22.26,    0.05
 87026611,2006-07-21T23:41:00.203,-2665.59,12934973, 154.34,  14.49, 2574984, 2575192, 2574788, 2575154, 2575022,     202,    1.36,   0.788,    3.08,   25.95,    0.16
 87026612,2006-07-21T23:41:03.918,-2661.87,12914887, 154.31,  14.53, 2574988, 2575045, 2574683, 2575066, 2575025,     216,    0.72,   0.830,    1.85,   20.81,    0.01
 87026613,2006-07-21T23:41:07.375,-2658.42,12895880, 154.29,  14.57, 2574983, 2575152, 2574721, 2575117, 2575020,     157,    0.35,   0.863,   -0.10,   19.44,    0.23
 87026614,2006-07-21T23:41:10.832,-2654.96,12877143, 154.32,  14.59, 2574911, 2575096, 2574655, 2575039, 2574948,     142,    0.08,   0.835,   -0.28,   20.00,    0.20
 87026615,2006-07-21T23:41:14.289,-2651.50,12858076, 154.35,  14.59, 2574998, 2575064, 2574720, 2575088, 2575035,     208,    1.01,   0.798,    1.67,   21.39,    0.02
 87026616,2006-07-21T23:41:17.746,-2648.05,12839339, 154.37,  14.59, 2574996, 2575094, 2574754, 2575111, 2575033,     146,    1.09,   0.771,    2.05,   25.06,    0.01
 87026617,2006-07-21T23:41:21.203,-2644.59,12820332, 154.39,  14.62, 2574995, 2575163, 2574744, 2575100, 2575032,     202,    1.11,   0.767,    0.77,   22.05,    0.02
 87026618,2006-07-21T23:41:24.918,-2640.87,12799977, 154.40,  14.66, 2575004, 2575050, 2574668, 2575027, 2575041,     227,    0.28,   0.778,    1.80,   20.27,    0.03
 87026619,2006-07-21T23:41:28.375,-2637.42,12781270, 154.39,  14.66, 2574990, 2575140, 2574696, 2575051, 2575027,     201,    0.60,   0.770,    0.38,   21.20,    0.12
 87026620,2006-07-21T23:41:31.832,-2633.96,12762353, 154.39,  14.65, 2575007, 2575049, 2574716, 2575063, 2575044,     176,    0.27,   0.748,    1.99,   21.37,    0.06
 87026621,2006-07-21T23:41:35.289,-2630.50,12743526, 154.38,  14.64, 2575010, 2575003, 2574722, 2575064, 2575047,     179,    0.57,   0.738,    0.90,   22.16,    0.06
 87026622,2006-07-21T23:41:38.746,-2627.05,12724579, 154.36,  14.64, 2574999, 2575046, 2574666, 2575011, 2575036,     230,    0.34,   0.745,    0.06,   19.89,    0.12